Weather History for Wisconsin Rapids, WI

Change the Weather History Date:

Friday, June 14, 2013

  Actual Average Record
Temperature  
Mean Temperature 66 °F -  
Max Temperature 79 °F 78 °F 97 °F (1987)
Min Temperature 54 °F 55 °F 36 °F (1958)
Cooling Degree Days 1    
Growing Degree Days 16 (Base 50)    
Moisture  
Dew Point 51 °F    
Average Humidity 59    
Maximum Humidity 90    
Minimum Humidity 38    
Precipitation  
Precipitation 0.00 in - - ()
Sea Level Pressure  
Sea Level Pressure 30.09 in    
Wind  
Wind Speed 5 mph (ESE)    
Max Wind Speed 9 mph    
Max Gust Speed -    
Visibility 10 miles    
Events      
Averages and records for this station are not official NWS values.
T = Trace of Precipitation, MM = Missing Value Source: NWS Daily Summary

Daily Weather History Graph

Daily Weather History Graph

Search for Another Location

Airport:

Trip Planner

Search our weather history database for the weather conditions in past years. The results will help you decide how hot, cold, wet, or windy it might be!

Date:

Astronomy

Jun. 14, 2013 Rise Set
Actual Time 5:14 AM CDT 8:45 PM CDT
Civil Twilight 4:37 AM CDT 9:21 PM CDT
Nautical Twilight 3:49 AM CDT 10:10 PM CDT
Astronomical Twilight 2:47 AM CDT 11:12 PM CDT
Moon 11:01 AM CDT (6/14) No Moon Set
Length of Visible Light 16h 43m
Length of Day
15h 30m
Waxing Crescent, 30% of the Moon is Illuminated
Jun 14
Waxing Crescent
Jun 16
First Quarter
Jun 23
Full
Jun 29
Last Quarter
Jul 8
New

Hourly Weather History & Observations

Time (CDT) Temp. Dew Point Humidity Pressure Visibility Wind Dir Wind Speed Gust Speed Precip Events Conditions
12:54 AM 59.0 °F 51.1 °F 75% 30.12 in 10.0 mi ENE 4.6 mph - N/A   Clear
1:54 AM 57.9 °F 51.1 °F 78% 30.12 in 10.0 mi ENE 4.6 mph - N/A   Clear
2:54 AM 55.9 °F 51.1 °F 84% 30.12 in 10.0 mi ENE 4.6 mph - N/A   Clear
3:54 AM 54.0 °F 50.0 °F 86% 30.14 in 10.0 mi Calm Calm - N/A   Clear
4:54 AM 54.0 °F 50.0 °F 86% 30.12 in 10.0 mi ENE 4.6 mph - N/A   Clear
5:54 AM 54.0 °F 51.1 °F 90% 30.14 in 10.0 mi ENE 6.9 mph - N/A   Clear
6:54 AM 57.9 °F 46.9 °F 67% 30.13 in 10.0 mi ENE 8.1 mph - N/A   Clear
7:54 AM 61.0 °F 46.9 °F 60% 30.17 in 10.0 mi ESE 4.6 mph - N/A   Clear
8:54 AM 63.0 °F 46.9 °F 56% 30.16 in 10.0 mi SE 5.8 mph - N/A   Clear
9:54 AM 68.0 °F 46.9 °F 47% 30.15 in 10.0 mi ESE 6.9 mph - N/A   Clear
10:54 AM 70.0 °F 46.0 °F 42% 30.15 in 10.0 mi Variable 3.5 mph - N/A   Clear
11:54 AM 72.0 °F 46.9 °F 41% 30.14 in 10.0 mi Variable 4.6 mph - N/A   Clear
12:54 PM 73.9 °F 48.0 °F 40% 30.11 in 10.0 mi Variable 3.5 mph - N/A   Clear
1:54 PM 75.9 °F 48.9 °F 38% 30.10 in 10.0 mi South 9.2 mph - N/A   Clear
2:54 PM 77.0 °F 50.0 °F 39% 30.09 in 10.0 mi Variable 6.9 mph - N/A   Clear
3:54 PM 78.1 °F 51.1 °F 39% 30.04 in 10.0 mi ESE 8.1 mph - N/A   Clear
4:54 PM 78.1 °F 52.0 °F 40% 30.03 in 10.0 mi SSW 9.2 mph - N/A   Clear
5:54 PM 75.0 °F 51.1 °F 43% 30.00 in 10.0 mi South 6.9 mph - N/A   Clear
6:54 PM 73.9 °F 54.0 °F 50% 30.01 in 10.0 mi SSE 4.6 mph - N/A   Clear
7:54 PM 72.0 °F 55.0 °F 55% 30.02 in 10.0 mi SE 3.5 mph - N/A   Partly Cloudy
8:54 PM 69.1 °F 55.0 °F 61% 30.01 in 10.0 mi SE 4.6 mph - N/A   Scattered Clouds
9:54 PM 66.9 °F 55.0 °F 66% 30.01 in 10.0 mi SE 4.6 mph - N/A   Partly Cloudy
10:54 PM 66.0 °F 55.0 °F 68% 30.02 in 10.0 mi ESE 4.6 mph - N/A   Scattered Clouds
11:54 PM 64.9 °F 55.0 °F 70% 30.00 in 10.0 mi ESE 6.9 mph - N/A   Scattered Clouds